SCATSAT 1

Last updated on Sat Apr 13 2024 01:02:24 GMT+0100 (British Summer Time)

1 41790U 16059H 24103.57278294 .00000359 00000+0 10041-3 0 9991 2 41790 98.2286 147.0002 0003046 326.7617 33.3387 14.51609579399530
UTC large
Height (km)
Speed (km/s)
/
Latitude / Longitude
Inclination (degrees)
Orbital Period (minutes)
Azimuth
Elevation
Range (km)
Doppler Factor

Next 0 passes for location: London (51.5072 / 0.1276)

Sorry there are no passes over London.